[[{"header":{"parameterUnit":"m.s-1","parameterCategory":1,"la1":30.2991,"la2":30.254,"lo1":-89.0895,"lo2":-89.0444,"dy":0.0017,"dx":0.0017,"nx":28,"ny":28,"refTime":"2024-07-11T03:00:00:Z","depth":0,"parameterNumber":2,"parameterNumberName":"U-component_of_WINDS"},"data":[0,0,0,0,0,0,0,0,0,0,0,0,0,0,0,0,0,0,0,0,0,0,0,0,0,0,0,0,0,0,0,0,0,0,0,0,0,0,0,0,0,0,0,0,0,0,0,0,0,0,0,0,0,0,0,0,0,0,1.0937,1.0939,0,1.1091,1.1093,1.1095,1.1167,1.1166,1.1166,1.1166,1.1326,1.133,1.1335,0,0,0,0,0,0,0,0,0,0,0,0,0,1.0706,1.071,1.0937,1.0939,1.0941,1.1091,1.1093,1.1095,1.1167,1.1166,1.1166,1.1166,1.1325,1.133,1.1335,0,0,0,0,0,0,0,0,0,0,0,0,0,1.0828,1.0711,1.0937,1.0995,1.1001,1.1091,1.1093,1.1096,1.1167,1.1166,1.1166,1.1166,1.1323,1.1329,1.1336,1.1379,0,0,1.1356,1.1359,0,0,0,0,0,0,0,0,1.0821,1.0836,1.0984,1.0991,1.0999,1.111,1.107,1.1191,1.1167,1.1104,1.1166,1.1166,1.1254,1.1266,1.1296,1.1387,1.1394,1.1356,1.136,1.1363,1.1365,0,0,0,0,0,0,0,1.0812,1.083,1.0998,1.0986,1.0995,1.1013,1.103,1.1093,1.1178,1.1109,1.1115,1.1132,1.1258,1.1289,1.13,1.1396,1.1356,1.1362,1.1366,1.1368,1.153,1.1531,0,0,0,0,0,0,1.0794,1.0822,1.0993,1.1003,1.0907,1.1017,1.1037,1.1074,1.1178,1.1193,1.1132,1.1135,1.1278,1.1292,1.1306,1.1364,1.1363,1.1369,1.1373,1.153,1.153,1.1531,0,0,0,0,0,0,1.0789,1.0809,1.0987,1.0914,1.0938,1.1022,1.1063,1.1077,1.1109,1.1195,1.1211,1.1148,1.1279,1.1297,1.136,1.137,1.1372,1.1378,1.1529,1.153,1.1531,1.148,0,0,0,0,0,0,1.0782,1.0806,1.0824,1.0914,1.0942,1.1039,1.1064,1.108,1.1119,1.1124,1.1214,1.1229,1.128,1.135,1.1367,1.1379,1.1383,1.1529,1.153,1.153,1.1481,1.1478,1.1476,0,0,0,0,0,1.0773,1.0804,1.0824,1.0845,1.0965,1.1039,1.1055,1.1112,1.112,1.1138,1.1193,1.1226,1.1366,1.1356,1.1375,1.139,1.1529,1.153,1.153,1.1482,1.1479,1.1476,0,0,0,0,0,0,1.0714,1.0817,1.0841,1.0901,1.0961,1.1051,1.1076,1.1108,1.1167,1.1169,1.1238,1.1258,1.1315,1.1359,1.1346,1.1437,1.145,1.1455,1.1407,1.1405,1.1403,1.1391,1.1389,0,0,0,0,0,1.0707,1.0758,1.0846,1.0891,1.0919,1.0992,1.1026,1.1065,1.113,1.1156,1.1216,1.1278,1.1336,1.1373,1.1431,1.1487,1.1508,1.1507,1.1504,1.1502,1.1506,1.1538,1.1539,1.1534,1.1534,1.1534,0,0,1.0695,1.0758,1.0786,1.088,1.0931,1.0982,1.1013,1.1066,1.1105,1.1164,1.1228,1.1273,1.1347,1.1407,1.1436,1.1445,1.1511,1.1503,1.1501,1.1506,1.1539,1.1539,1.154,1.1534,1.1534,1.1534,0,0,1.07,1.0752,1.0795,1.0845,1.0921,1.0969,1.0978,1.1064,1.1096,1.1161,1.1206,1.1253,1.1352,1.1402,1.1441,1.1462,1.1494,1.1479,1.1467,1.1498,1.1499,1.1499,1.1507,1.1509,1.1482,1.1482,1.1482,0,1.0676,1.0754,1.0813,1.0864,1.0904,1.0958,1.1002,1.1048,1.1139,1.1165,1.1173,1.1297,1.1351,1.1423,1.1428,1.1457,1.1471,1.147,1.1494,1.1495,1.1497,1.1505,1.1507,1.1479,1.148,1.148,1.148,0,1.072,1.0774,1.08,1.0885,1.0928,1.0975,1.1041,1.1077,1.1112,1.1158,1.1223,1.1289,1.1361,1.1381,1.1416,1.1458,1.1461,1.148,1.1495,1.1494,1.1502,1.1506,1.1476,1.1477,1.1478,1.1478,0,0,1.0693,1.0809,1.0818,1.0857,1.0944,1.0986,1.1035,1.1105,1.1134,1.1195,1.1238,1.1319,1.1337,1.1381,1.1421,1.1448,1.146,1.1465,1.1468,1.1462,1.1511,1.1496,1.1498,1.1482,1.1483,1.1483,1.1505,0,1.071,1.0799,1.0853,1.0921,1.0971,1.1023,1.1066,1.1123,1.1168,1.1217,1.1267,1.1323,1.1343,1.137,1.1398,1.1453,1.1471,1.1452,1.1523,1.1525,1.1503,1.1503,1.1488,1.1504,1.1508,1.1509,1.1509,0,1.0741,1.0799,1.0872,1.0952,1.0975,1.1012,1.108,1.1126,1.1192,1.1223,1.127,1.1311,1.1365,1.1374,1.1449,1.1434,1.1466,1.1497,1.1499,1.1509,1.1517,1.1513,1.1511,1.1514,1.1515,1.1515,1.1514,0,1.0714,1.081,1.0866,1.0898,1.0993,1.1018,1.1058,1.1125,1.1162,1.1221,1.1247,1.1311,1.1347,1.1396,1.1453,1.1454,1.1522,1.1536,1.1549,1.1548,1.1562,1.1561,1.1566,1.1581,1.1581,1.1581,1.1581,0,1.0727,1.077,1.0855,1.0889,1.0938,1.0999,1.1046,1.1091,1.1149,1.1193,1.1242,1.1282,1.1354,1.1403,1.1448,1.1503,1.1519,1.1546,1.1557,1.1542,1.1538,1.1564,1.1565,1.1582,1.1582,1.1582,1.1582,0,1.0706,1.0764,1.0829,1.0912,1.0934,1.0967,1.1039,1.1074,1.112,1.1175,1.1192,1.1265,1.1325,1.1387,1.1469,1.1499,1.1553,1.1568,1.153,1.1536,1.1546,1.1545,1.157,1.1576,1.1586,1.1586,1.1585,0,1.071,1.0744,1.0831,1.0863,1.0903,1.0955,1.0993,1.1054,1.1092,1.1169,1.1195,1.1259,1.1313,1.1407,1.1468,1.1531,1.1549,1.1553,1.1559,1.1541,1.1549,1.1546,1.155,1.1551,1.155,1.155,1.155,0,1.0713,1.074,1.0793,1.0856,1.0901,1.0954,1.1008,1.1032,1.1104,1.1144,1.1206,1.1248,1.133,1.1393,1.1463,1.1505,1.154,1.1547,1.1554,1.1539,1.1515,1.1528,1.1524,1.1547,1.1547,1.1547,1.1547,1.1548,1.0705,1.0737,1.0803,1.086,1.0907,1.0957,1.0994,1.1044,1.1097,1.1168,1.1201,1.1263,1.1328,1.1424,1.1466,1.1515,1.1525,1.1534,1.1537,1.1538,1.1534,1.1506,1.1528,1.1528,1.1528,1.1529,1.1529,0,1.071,1.0754,1.0806,1.0881,1.0926,1.0953,1.1014,1.105,1.1104,1.1161,1.1213,1.1283,1.1344,1.1409,1.1473,1.15,1.1518,1.1515,1.1514,1.1523,1.1522,1.151,1.15,1.15,1.15,1.15,1.15,1.15,1.0718,1.0773,1.0808,1.0887,1.0931,1.0991,1.1024,1.107,1.1116,1.1192,1.1242,1.1283,1.1344,1.1413,1.1469,1.1487,1.1509,1.1502,1.1524,1.1522,1.1524,1.1526,1.1515,1.1506,1.1506,1.1521,1.1521,1.1521]},{"header":{"parameterUnit":"m.s-1","parameterCategory":1,"la1":30.2991,"la2":30.254,"lo1":-89.0895,"lo2":-89.0444,"dy":0.0017,"dx":0.0017,"nx":28,"ny":28,"refTime":"2024-07-11T03:00:00:Z","depth":0,"parameterNumber":3,"parameterNumberName":"V-component_of_WINDS"},"data":[0,0,0,0,0,0,0,0,0,0,0,0,0,0,0,0,0,0,0,0,0,0,0,0,0,0,0,0,0,0,0,0,0,0,0,0,0,0,0,0,0,0,0,0,0,0,0,0,0,0,0,0,0,0,0,0,0,0,2.2454,2.2453,0,2.2403,2.2403,2.2402,2.2373,2.2373,2.2373,2.2372,2.2317,2.2316,2.2315,0,0,0,0,0,0,0,0,0,0,0,0,0,2.2522,2.2521,2.2454,2.2453,2.2453,2.2403,2.2403,2.2402,2.2373,2.2373,2.2373,2.2372,2.2318,2.2316,2.2315,0,0,0,0,0,0,0,0,0,0,0,0,0,2.2484,2.2521,2.2454,2.2432,2.243,2.2403,2.2403,2.2402,2.2373,2.2373,2.2373,2.2372,2.2318,2.2316,2.2314,2.2305,0,0,2.2308,2.2307,0,0,0,0,0,0,0,0,2.2486,2.2482,2.2436,2.2434,2.2431,2.2394,2.2406,2.2369,2.2373,2.2394,2.2372,2.2372,2.2343,2.2339,2.2329,2.2302,2.23,2.2308,2.2307,2.2306,2.2305,0,0,0,0,0,0,0,2.2489,2.2484,2.2434,2.2436,2.2432,2.2424,2.2418,2.2399,2.237,2.2393,2.239,2.2385,2.2341,2.2332,2.2328,2.2299,2.2308,2.2306,2.2305,2.2304,2.2259,2.2259,0,0,0,0,0,0,2.2496,2.2486,2.2435,2.2432,2.2459,2.2423,2.2417,2.2406,2.237,2.2365,2.2385,2.2384,2.2335,2.233,2.2326,2.2311,2.2306,2.2304,2.2303,2.2259,2.2259,2.2259,0,0,0,0,0,0,2.2497,2.2491,2.2437,2.2459,2.2451,2.2422,2.241,2.2405,2.2395,2.2365,2.2359,2.2381,2.2335,2.2329,2.231,2.2309,2.2303,2.2301,2.2259,2.2259,2.2259,2.2282,0,0,0,0,0,0,2.2499,2.2492,2.2489,2.2459,2.245,2.2424,2.241,2.2404,2.2392,2.239,2.2359,2.2353,2.2334,2.2313,2.2308,2.2306,2.2299,2.2259,2.2259,2.2259,2.2281,2.2283,2.2284,0,0,0,0,0,2.2502,2.2497,2.2489,2.2483,2.2446,2.2424,2.2419,2.2397,2.2392,2.2388,2.2368,2.2354,2.231,2.2311,2.2305,2.2303,2.2259,2.2259,2.2259,2.2281,2.2283,2.2284,0,0,0,0,0,0,2.2528,2.2493,2.2484,2.2469,2.245,2.2419,2.2413,2.24,2.2381,2.238,2.2353,2.2346,2.233,2.2314,2.2317,2.229,2.2283,2.2281,2.2301,2.2303,2.2304,2.2308,2.2298,0,0,0,0,0,2.2532,2.2518,2.2488,2.2478,2.2469,2.2443,2.2432,2.2418,2.2396,2.2387,2.2366,2.2344,2.2325,2.2313,2.2294,2.2279,2.2271,2.2274,2.2275,2.2277,2.2276,2.2265,2.2266,2.2259,2.2259,2.2259,0,0,2.254,2.2519,2.2512,2.2483,2.2466,2.2451,2.2436,2.2421,2.2409,2.2385,2.2366,2.2349,2.2323,2.2306,2.2297,2.2292,2.2276,2.2277,2.2278,2.2276,2.2265,2.2266,2.2266,2.2259,2.2259,2.2259,0,0,2.2547,2.2531,2.252,2.2504,2.2478,2.2461,2.2458,2.2429,2.2417,2.2398,2.2379,2.2364,2.2332,2.2314,2.23,2.2299,2.2285,2.2294,2.2302,2.2291,2.2292,2.2292,2.2291,2.2291,2.2293,2.2293,2.2293,0,2.256,2.2538,2.2516,2.2502,2.2489,2.2467,2.2455,2.244,2.2409,2.24,2.2396,2.2354,2.2335,2.2313,2.2312,2.2303,2.2298,2.2297,2.2294,2.2294,2.2294,2.2292,2.2292,2.2294,2.2294,2.2294,2.2294,0,2.2555,2.2539,2.2533,2.2505,2.2492,2.2479,2.2454,2.2442,2.2429,2.2411,2.2391,2.2367,2.2342,2.2336,2.2322,2.231,2.2308,2.2299,2.2291,2.2296,2.2294,2.2293,2.2296,2.2295,2.2295,2.2295,0,0,2.2577,2.2537,2.2535,2.2521,2.2491,2.2478,2.2463,2.244,2.243,2.2409,2.2395,2.2368,2.2359,2.2344,2.2328,2.2319,2.2318,2.2311,2.231,2.2312,2.2303,2.231,2.2309,2.2309,2.2309,2.2309,2.2305,0,2.2579,2.2553,2.2533,2.2514,2.2498,2.2476,2.2463,2.2443,2.2426,2.2409,2.239,2.2371,2.2361,2.2351,2.2342,2.2321,2.2316,2.2321,2.2294,2.2294,2.2301,2.2308,2.2316,2.2313,2.2304,2.2304,2.2303,0,2.2578,2.2559,2.2539,2.2509,2.2502,2.2491,2.2467,2.2452,2.2427,2.2415,2.2398,2.2381,2.2363,2.2357,2.233,2.2334,2.2322,2.231,2.2309,2.2305,2.2299,2.2304,2.2312,2.2311,2.2302,2.2302,2.2302,0,2.2595,2.2564,2.2548,2.2537,2.2502,2.2495,2.248,2.2455,2.2442,2.2421,2.2412,2.2388,2.2375,2.2357,2.2333,2.2331,2.2309,2.2301,2.2297,2.2298,2.2293,2.2294,2.2299,2.2287,2.2287,2.2287,2.2287,0,2.2599,2.2587,2.2555,2.2545,2.253,2.2506,2.2492,2.2475,2.2453,2.2438,2.2418,2.2404,2.2374,2.2356,2.2338,2.2318,2.2312,2.2301,2.2296,2.2303,2.2304,2.2294,2.2293,2.2286,2.2286,2.2287,2.2287,0,2.2616,2.2594,2.2574,2.2543,2.2535,2.2526,2.2498,2.2487,2.2469,2.245,2.2444,2.2415,2.2392,2.2367,2.2337,2.2324,2.2305,2.2298,2.2314,2.2311,2.2309,2.2309,2.2307,2.2305,2.2295,2.2295,2.2295,0,2.2619,2.261,2.2578,2.2567,2.2553,2.2536,2.2522,2.2498,2.2484,2.2455,2.2446,2.2423,2.2403,2.2367,2.2343,2.2318,2.2311,2.2311,2.2307,2.2313,2.2309,2.231,2.2309,2.2313,2.2313,2.2313,2.2313,0,2.2628,2.2617,2.2599,2.2577,2.2562,2.2543,2.2523,2.2515,2.2486,2.2471,2.2449,2.2433,2.2402,2.2378,2.2351,2.2334,2.2318,2.2315,2.2313,2.2319,2.2328,2.2322,2.2317,2.2315,2.2315,2.2315,2.2315,2.2315,2.2637,2.2628,2.2604,2.2584,2.2566,2.2548,2.2536,2.2516,2.2497,2.247,2.2457,2.2434,2.2408,2.237,2.2353,2.2334,2.2329,2.2326,2.2325,2.2325,2.2326,2.2332,2.2329,2.2329,2.2329,2.2329,2.2329,0,2.2644,2.2628,2.261,2.2583,2.2567,2.2555,2.2532,2.2519,2.25,2.2478,2.2458,2.2432,2.2408,2.2381,2.2356,2.2346,2.2338,2.234,2.234,2.2336,2.2332,2.2337,2.2346,2.2346,2.2346,2.2346,2.2346,2.2346,2.2646,2.2628,2.2615,2.2588,2.2571,2.2549,2.2537,2.252,2.2502,2.2473,2.2454,2.2437,2.2413,2.2385,2.2363,2.2355,2.2346,2.235,2.234,2.2338,2.2336,2.2335,2.2339,2.2349,2.2349,2.2345,2.2345,2.2345]}]]